IRIDIUM 33 DEB, 34896

Orbit data source: Space-Track

IRIDIUM 33 DEB, 34896 is space debris in LEO originally from a launch on Sun, 14 Sep 1997 UTC launched from the Tyuratam Missile And Space Complex (TTMTR). The debris from Iridium 33, an American commercial communications satellite, has been tracked extensively since its accidental collision with the defunct Russian satellite Cosmos 2251 in 2009. This event, occurring at high speed in low Earth orbit (LEO), generated thousands of pieces of space debris, significantly increasing the risk of further collisions. The Iridium 33 debris cloud has impacted space traffic management and orbital debris mitigation strategies, making it a subject of ongoing study in space situational awareness.

Loading next visibility...
Identifier
34896, 1997-051MY
Orbit
LEO
Country
Flag of USUS
Related business
Manufacturer
Unknown
Mission
Spacecraft
Bus & Motor
Unknown
Mass
Unknown
Launch date (UTC)
1997-09-14 (28 years ago)
Launch vehicle
Unknown
Launch site
Tyuratam Missile And Space Complex (TTMTR)
Object type
Payload
Rocket body
Debris
Shape & HBR
Unknown shape, 0.1 m
Radar Cross Section
Small (<0.1 m²)

Expand to show TLE details & history
Last TLE update: 18 hours ago

TLE from 18 hours ago
0 IRIDIUM 33 DEB
1 34896U 97051MY  26061.94884556  .00004677  00000-0  82332-3 0  9991
2 34896  86.3266 290.6953 0024343 307.1937 116.6925 14.67216364887950
Epoch: 2026-03-02T22:46Z
TLE epoch observation values (Epoch: 2026-03-02T22:46:20.256Z)
Latitude
63.98265°
Longitude
155.89309°
Altitude
688.823 km
Speed
7.514 km/s
True Right ascension
19h 52m 50s
True Declination
63° 50' 44"
Sunlit
Object was in daylight at epoch
Visualization orbit readout
Latitude
Unknown
Longitude
Unknown
Altitude
Unknown
Speed
Unknown
Apparent Right ascension
Unknown
Apparent Declination
Unknown
Sunlit
N/A
Visualization observer readout
Local Sidereal Time
20:47:39
Azimuth
Unknown
Elevation
Unknown
Doppler factor
Unknown
Orbital elements
Apogee altitude
684.038 km
Perigee altitude
649.738 km
Semi-major axis
7,045.025 km
Eccentricity
0.00243
Inclination
86.3266°
RAAN
290.6953°
Arg. of periapsis
307.1937°
True anomaly
116.94138°
Mean anomaly
116.6925°
Eccentric anomaly
116.81697°
Mean motion
3.67045 °/min
Orbital period
98.08 mins
BSTAR
0.00082332
Loading maneuver chart data...
Computing Atmospheric mass density...

Documentation

Showing up to 5 results
|